{"data":{"norad_id":69566,"epoch":"2026-09-20T00:50:46.718016Z","epoch_age_seconds":61840,"freshness":"FRESH","line1":"1 69566U 26135W   26263.03526294  .00016113  00000+0  50063-3 0  9997","line2":"2 69566  97.2822 290.8005 0001426 106.5076 253.6323 15.33427484 14938","mean_motion":15.33427484,"eccentricity":0.0001426,"inclination_deg":97.2822,"raan_deg":290.8005,"arg_perigee_deg":106.5076,"mean_anomaly_deg":253.6323,"bstar":0.00050063,"rev_number":1493,"period_min":93.907277326458,"perigee_km":464.61937404207,"apogee_km":466.57120649125,"semimajor_km":6843.7322902667,"source":"CELESTRAK","updated_at":"2026-09-20T09:00:44.245893Z"}}